Retour au catalogue

STARLINK-33643

ActifCommunicationsVLEO
NORAD 63381·PAYLOAD·🇺🇸 United States

Lancé Mar 26, 2025 depuis Vandenberg Space Force Base

Loading…

Prochains Passages (prochaines 24 heures)

TLE

FraisSource: CelesTrak SupGP

Époque: Sep 15, 2026, 02:20 UTC

1 63381C 25063U   26258.09770833 -.00026924  00000+0 -79535-3 0  2581
2 63381  53.1564 250.6539 0001304  99.9931  30.3771 15.34408578    12

Suivez STARLINK-33643 en temps réel avec AllMySat

Download on the App Store